Sauk Centre, MN

7:33 AM CST on December 15, 2019 (GMT -0600)
Sauk Centre

Weather History for KD39 - October, 2019

Change the Weather History Date:

Wednesday, October 16, 2019

  Actual Average (WUND) Record (WUND)
Temperature  
Mean Temperature 38 °F -  
Max Temperature 42 °F - - (-1)
Min Temperature 35 °F - - (-1)
Degree Days  
Heating Degree Days 26    
Moisture  
Dew Point 35 °F    
Average Humidity 86    
Maximum Humidity 97    
Minimum Humidity 75    
Precipitation  
Precipitation 0.00 in - - ()
Sea Level Pressure  
Sea Level Pressure 30.10 in    
Wind  
Wind Speed 7 mph ()    
Max Wind Speed 14 mph    
Max Gust Speed 20 mph    
Visibility 10.0 miles    
Events      
Averages and records for this station are not official NWS values.
T = Trace of Precipitation, MM = Missing Value Source: Averaged Metar Reports

Daily Weather History Graph

Daily Weather History Graph

Search for Another Location

Airport or City:

Astronomy

Oct. 16, 2019 Rise Set
Actual Time 7:37 AM CDT 6:32 PM CDT
Civil Twilight 7:07 AM CDT 7:02 PM CDT
Nautical Twilight 6:32 AM CDT 7:36 PM CDT
Astronomical Twilight 5:58 AM CDT 8:11 PM CDT
Moon 8:19 PM CDT (10/16) 10:14 AM CDT (10/16)
Length of Visible Light 11h 55m
Length of Day
10h 55m
Waning Gibbous, 92% of the Moon is Illuminated
Oct 16
Waning Gibbous
Oct 21
Last Quarter
Oct 27
New
Nov 4
First Quarter
Nov 12
Full

Hourly Weather History & Observations

Time (CDT) Temp. Windchill Dew Point Humidity Pressure Visibility Wind Dir Wind Speed Gust Speed Precip Events Conditions
12:15 AM 39.2 °F 31.6 °F 35.4 °F 86% 30.11 in 10.0 mi NW 12.7 mph - N/A   Overcast
12:35 AM 39.2 °F 31.6 °F 34.7 °F 84% 30.11 in 10.0 mi NW 12.7 mph 17.3 mph N/A   Overcast
12:36 AM 39.2 °F 31.2 °F 34.7 °F 84% 30.11 in 10.0 mi NW 13.8 mph - N/A   Overcast
12:55 AM 38.7 °F 30.5 °F 34.7 °F 86% 30.11 in 10.0 mi NW 13.8 mph - N/A   Overcast
12:56 AM 38.7 °F 30.5 °F 34.7 °F 86% 30.11 in 10.0 mi NW 13.8 mph - N/A   Overcast
1:19 AM 38.7 °F 31.8 °F 34.0 °F 83% 30.11 in 10.0 mi NW 10.4 mph 19.6 mph N/A   Overcast
1:36 AM 38.7 °F 32.4 °F 34.0 °F 83% 30.11 in 10.0 mi WNW 9.2 mph - N/A   Overcast
1:56 AM 38.5 °F 31.1 °F 34.0 °F 84% 30.11 in 10.0 mi WNW 11.5 mph - N/A   Overcast
2:15 AM 38.1 °F 31.2 °F 34.0 °F 85% 30.11 in 10.0 mi WNW 10.4 mph - N/A   Overcast
2:16 AM 37.9 °F 30.9 °F 34.0 °F 86% 30.11 in 10.0 mi WNW 10.4 mph - N/A   Overcast
2:35 AM 37.9 °F 31.5 °F 34.0 °F 86% 30.12 in 10.0 mi WNW 9.2 mph - N/A   Overcast
2:39 AM 37.8 °F 32.5 °F 34.0 °F 86% 30.12 in 10.0 mi WNW 6.9 mph 10.4 mph N/A   Overcast
2:57 AM 37.8 °F 30.7 °F 34.0 °F 86% 30.12 in 10.0 mi WNW 10.4 mph - N/A   Overcast
3:15 AM 37.6 °F 30.0 °F 34.2 °F 87% 30.13 in 10.0 mi WNW 11.5 mph - N/A   Overcast
3:35 AM 37.4 °F 30.3 °F 33.3 °F 85% 30.13 in 10.0 mi NW 10.4 mph - N/A   Overcast
3:55 AM 37.4 °F 32.1 °F 33.6 °F 86% 30.12 in 10.0 mi WNW 6.9 mph - N/A   Overcast
3:56 AM 37.4 °F 32.1 °F 33.8 °F 87% 30.12 in 10.0 mi WNW 6.9 mph - N/A   Overcast
4:18 AM 37.4 °F 32.8 °F 34.2 °F 88% 30.12 in 10.0 mi West 5.8 mph - N/A   Overcast
4:36 AM 37.4 °F 29.8 °F 34.7 °F 90% 30.12 in 10.0 mi WNW 11.5 mph 16.1 mph N/A   Overcast
4:56 AM 37.4 °F 30.8 °F 34.2 °F 88% 30.13 in 10.0 mi WNW 9.2 mph - N/A   Overcast
5:15 AM 37.4 °F 31.4 °F 34.2 °F 88% 30.13 in 10.0 mi WNW 8.1 mph - N/A   Overcast
5:35 AM 37.4 °F 30.8 °F 34.0 °F 87% 30.13 in 10.0 mi WNW 9.2 mph - N/A   Overcast
5:39 AM 37.4 °F 31.4 °F 34.0 °F 87% 30.13 in 10.0 mi NW 8.1 mph - N/A   Overcast
5:58 AM 37.4 °F 31.4 °F 34.0 °F 87% 30.13 in 10.0 mi WNW 8.1 mph - N/A   Overcast
6:15 AM 37.2 °F 31.9 °F 34.0 °F 88% 30.13 in 10.0 mi WNW 6.9 mph - N/A   Overcast
6:35 AM 37.0 °F 31.0 °F 34.3 °F 90% 30.12 in 10.0 mi WNW 8.1 mph - N/A   Overcast
6:36 AM 37.0 °F 31.6 °F 34.3 °F 90% 30.12 in 10.0 mi WNW 6.9 mph - N/A   Overcast
6:55 AM 36.9 °F 30.1 °F 34.3 °F 91% 30.12 in 10.0 mi WNW 9.2 mph - N/A   Overcast
6:59 AM 36.9 °F 30.1 °F 34.3 °F 91% 30.12 in 10.0 mi WNW 9.2 mph - N/A   Overcast
7:17 AM 37.0 °F 30.4 °F 34.0 °F 89% 30.12 in 10.0 mi NW 9.2 mph - N/A   Overcast
7:35 AM 36.9 °F 30.7 °F 34.0 °F 89% 30.12 in 10.0 mi WNW 8.1 mph - N/A   Overcast
7:55 AM 36.9 °F 30.1 °F 34.0 °F 89% 30.12 in 10.0 mi NW 9.2 mph - N/A   Overcast
7:56 AM 36.9 °F 30.1 °F 34.0 °F 89% 30.12 in 10.0 mi NW 9.2 mph - N/A   Overcast
8:15 AM 36.7 °F 28.9 °F 33.8 °F 89% 30.13 in 10.0 mi WNW 11.5 mph - N/A   Overcast
8:38 AM 36.5 °F 29.2 °F 34.0 °F 91% 30.13 in 10.0 mi WNW 10.4 mph - N/A   Overcast
8:57 AM 36.5 °F 30.3 °F 34.5 °F 93% 30.13 in 10.0 mi WNW 8.1 mph - N/A   Overcast
9:16 AM 36.5 °F 31.0 °F 34.7 °F 93% 30.13 in 10.0 mi WNW 6.9 mph - N/A   Overcast
9:35 AM 36.7 °F 29.9 °F 34.7 °F 93% 30.14 in 10.0 mi NW 9.2 mph - N/A   Overcast
9:36 AM 36.7 °F 30.5 °F 34.7 °F 93% 30.14 in 10.0 mi NW 8.1 mph - N/A   Overcast
9:55 AM 36.9 °F 34.3 °F 34.9 °F 93% 30.14 in 10.0 mi North 3.5 mph - N/A   Overcast
10:17 AM 37.0 °F 31.6 °F 35.1 °F 93% 30.14 in 10.0 mi NNW 6.9 mph - N/A   Overcast
10:35 AM 36.9 °F 34.3 °F 34.7 °F 92% 30.16 in 10.0 mi WNW 3.5 mph - N/A   Overcast
10:36 AM 36.9 °F 34.3 °F 34.7 °F 92% 30.16 in 10.0 mi West 3.5 mph - N/A   Overcast
10:55 AM 37.4 °F 32.8 °F 35.1 °F 91% 30.16 in 10.0 mi WNW 5.8 mph - N/A   Overcast
10:56 AM 37.4 °F 32.8 °F 35.1 °F 91% 30.16 in 10.0 mi West 5.8 mph - N/A   Overcast
11:15 AM 37.4 °F 31.4 °F 34.7 °F 90% 30.16 in 10.0 mi West 8.1 mph - N/A   Overcast
11:20 AM 37.0 °F 32.4 °F 34.5 °F 91% 30.16 in 10.0 mi West 5.8 mph - N/A   Overcast
11:37 AM 37.4 °F 32.8 °F 34.5 °F 89% 30.14 in 10.0 mi NW 5.8 mph - N/A   Overcast
11:55 AM 38.3 °F 33.9 °F 34.2 °F 85% 30.14 in 10.0 mi WNW 5.8 mph - N/A   Overcast
12:15 PM 38.5 °F - 33.6 °F 83% 30.14 in 10.0 mi Calm Calm - N/A   Overcast
12:16 PM 38.5 °F - 33.6 °F 83% 30.14 in 10.0 mi Calm Calm - N/A   Overcast
12:36 PM 39.0 °F 35.7 °F 34.0 °F 82% 30.14 in 10.0 mi WNW 4.6 mph - N/A   Overcast
12:59 PM 39.2 °F 35.0 °F 35.2 °F 86% 30.13 in 10.0 mi WSW 5.8 mph - N/A   Overcast
1:16 PM 39.0 °F - 35.1 °F 86% 30.12 in 10.0 mi Calm Calm - N/A   Overcast
1:35 PM 39.6 °F 36.3 °F 34.9 °F 83% 30.12 in 10.0 mi West 4.6 mph - N/A   Overcast
1:36 PM 39.6 °F 36.3 °F 34.7 °F 83% 30.12 in 10.0 mi West 4.6 mph - N/A   Overcast
1:55 PM 40.1 °F 36.1 °F 34.9 °F 82% 30.11 in 10.0 mi WSW 5.8 mph - N/A   Overcast
1:56 PM 40.1 °F 36.1 °F 34.9 °F 82% 30.11 in 10.0 mi West 5.8 mph - N/A   Overcast
2:15 PM 40.5 °F 35.1 °F 35.2 °F 82% 30.11 in 10.0 mi West 8.1 mph - N/A   Overcast
2:20 PM 40.3 °F 36.3 °F 34.9 °F 81% 30.10 in 10.0 mi West 5.8 mph - N/A   Overcast
2:37 PM 41.0 °F 39.0 °F 35.2 °F 80% 30.10 in 10.0 mi West 3.5 mph - N/A   Overcast
2:55 PM 41.0 °F - 34.7 °F 78% 30.09 in 10.0 mi Calm Calm - N/A   Overcast
3:15 PM 41.9 °F - 35.1 °F 77% 30.09 in 10.0 mi Calm Calm - N/A   Overcast
3:16 PM 41.9 °F - 35.1 °F 77% 30.09 in 10.0 mi Calm Calm - N/A   Overcast
3:35 PM 42.1 °F 40.2 °F 34.7 °F 75% 30.08 in 10.0 mi WNW 3.5 mph - N/A   Overcast
3:36 PM 42.1 °F - 34.5 °F 75% 30.08 in 10.0 mi Calm Calm - N/A   Overcast
3:59 PM 41.9 °F - 34.9 °F 76% 30.07 in 10.0 mi Calm Calm - N/A   Overcast
4:16 PM 42.3 °F - 35.2 °F 76% 30.07 in 10.0 mi Calm Calm - N/A   Overcast
4:36 PM 42.6 °F 39.9 °F 35.2 °F 75% 30.06 in 10.0 mi WSW 4.6 mph - N/A   Overcast
4:55 PM 42.3 °F - 35.2 °F 76% 30.06 in 10.0 mi Calm Calm - N/A   Overcast
4:56 PM 42.3 °F - 35.2 °F 76% 30.06 in 10.0 mi Calm Calm - N/A   Overcast
5:15 PM 42.1 °F - 34.7 °F 75% 30.06 in 10.0 mi Calm Calm - N/A   Overcast
5:19 PM 42.1 °F - 34.7 °F 75% 30.05 in 10.0 mi Calm Calm - N/A   Overcast
5:37 PM 42.1 °F - 35.1 °F 76% 30.05 in 10.0 mi Calm Calm - N/A   Overcast
5:55 PM 41.9 °F - 35.4 °F 78% 30.05 in 10.0 mi Calm Calm - N/A   Overcast
6:15 PM 41.5 °F - 36.5 °F 82% 30.04 in 10.0 mi Calm Calm - N/A   Overcast
6:16 PM 41.5 °F - 36.5 °F 82% 30.04 in 10.0 mi Calm Calm - N/A   Overcast
6:35 PM 41.4 °F 38.4 °F 36.3 °F 82% 30.04 in 10.0 mi SSW 4.6 mph - N/A   Overcast
6:36 PM 41.2 °F 39.2 °F 36.1 °F 82% 30.04 in 10.0 mi SSW 3.5 mph - N/A   Overcast
6:59 PM 41.2 °F 39.2 °F 36.5 °F 83% 30.04 in 10.0 mi SW 3.5 mph - N/A   Overcast
7:16 PM 41.0 °F 37.1 °F 36.5 °F 84% 30.04 in 10.0 mi SSW 5.8 mph - N/A   Overcast
7:36 PM 40.5 °F 36.5 °F 36.5 °F 86% 30.04 in 10.0 mi SSW 5.8 mph - N/A   Overcast
7:55 PM 40.3 °F 36.3 °F 36.0 °F 85% 30.04 in 10.0 mi SW 5.8 mph - N/A   Overcast
7:56 PM 40.3 °F 37.1 °F 36.0 °F 85% 30.04 in 10.0 mi SW 4.6 mph - N/A   Overcast
8:15 PM 40.1 °F - 36.1 °F 86% 30.04 in 10.0 mi Calm Calm - N/A   Overcast
8:19 PM 39.9 °F - 36.1 °F 86% 30.03 in 10.0 mi Calm Calm - N/A   Overcast
8:37 PM 39.4 °F - 36.5 °F 89% 30.03 in 10.0 mi Calm Calm - N/A   Overcast
8:55 PM 39.2 °F - 36.5 °F 90% 30.04 in 10.0 mi Calm Calm - N/A   Overcast
9:15 PM 39.2 °F - 36.5 °F 90% 30.04 in 10.0 mi Calm Calm - N/A   Scattered Clouds
9:35 PM 39.0 °F - 36.5 °F 91% 30.04 in 10.0 mi Calm Calm - N/A   Clear
9:36 PM 39.2 °F - 36.5 °F 90% 30.04 in 10.0 mi Calm Calm - N/A   Clear
9:59 PM 38.8 °F - 36.5 °F 91% 30.05 in 10.0 mi Calm Calm - N/A   Mostly Cloudy
10:17 PM 38.3 °F - 36.1 °F 92% 30.04 in 10.0 mi Calm Calm - N/A   Overcast
10:36 PM 37.4 °F - 35.6 °F 93% 30.05 in 10.0 mi Calm Calm - N/A   Mostly Cloudy
10:55 PM 37.0 °F - 35.8 °F 95% 30.05 in 10.0 mi Calm Calm - N/A   Mostly Cloudy
10:56 PM 37.0 °F - 35.6 °F 95% 30.05 in 10.0 mi Calm Calm - N/A   Mostly Cloudy
11:15 PM 36.5 °F - 35.2 °F 95% 30.04 in 10.0 mi Calm Calm - N/A   Mostly Cloudy
11:19 PM 36.0 °F 33.3 °F 34.9 °F 96% 30.04 in 10.0 mi SE 3.5 mph - N/A   Mostly Cloudy
11:38 PM 35.1 °F 32.2 °F 34.3 °F 97% 30.04 in 10.0 mi SE 3.5 mph - N/A   Overcast
11:56 PM 35.6 °F - 34.9 °F 97% 30.04 in 10.0 mi Calm Calm - N/A   Overcast